Wetbulb
41.09 41.75 42.71 44.57 44.94 45.65 46.65 47.10 47.25 48.97 52.41 61.04 61.81 61.27 60.84 61.21 61.44 62.51 61.47 60.53 60.79 60.55 60.94 61.70 61.56 61.29 60.29 59.83 59.06 57.92 56.68 54.14 53.69 52.71 53.42 53.08 54.51 55.05 55.71 56.12 55.64 55.31 55.07
40.21 39.94 41.11 42.87 43.59 43.70 43.50 45.01 45.49 46.68 48.28 51.88 59.69 62.19 62.37 62.00 61.78 62.35 61.35 60.48 61.06 61.20 60.07 60.93 60.84 60.84 60.08 59.62 59.20 58.11 55.76 55.62 52.87 52.53 50.66 49.42 53.05 53.67 53.68 54.64 54.16 53.86 54.35
38.52 39.33 39.64 40.99 42.76 42.24 41.62 42.32 44.28 44.93 46.59 48.58 53.53 62.06 62.11 61.80 61.14 60.79 60.06 60.92 60.10 60.85 61.41 60.24 60.93 61.02 61.03 60.05 59.74 58.84 56.58 54.44 53.68 52.35 52.75 47.51 48.61 49.14 49.64 49.39 50.65 50.89 51.97
39.36 39.79 39.68 39.35 40.52 41.48 42.11 42.04 42.70 44.29 46.06 47.59 50.03 52.13 60.57 59.48 60.49 61.53 61.16 60.60 60.96 60.08 61.05 59.67 60.24 61.02 60.96 60.34 60.53 59.94 58.20 56.88 53.76 52.67 52.85 54.63 54.23 50.10 49.64 51.04 49.28 49.33 49.43
38.50 38.77 39.53 39.74 40.61 41.58 41.69 41.93 42.67 43.43 45.15 46.70 48.46 50.24 52.36 60.44 62.22 61.46 60.93 60.52 60.46 60.77 60.39 59.97 59.62 59.53 58.77 59.21 59.72 58.96 58.57 58.08 56.80 53.25 52.42 52.28 52.26 50.93 49.17 48.87 51.92 50.26 50.25
37.29 39.36 40.61 40.49 40.17 41.29 41.80 41.94 41.96 42.70 44.31 45.15 46.67 48.57 50.30 51.67 59.43 59.93 59.97 59.76 60.21 59.74 60.09 60.01 60.41 60.29 59.77 58.70 58.71 58.54 57.03 56.07 55.14 54.58 55.08 53.39 51.94 50.72 48.91 48.35 49.36 50.33 53.56
37.39 38.58 38.53 38.41 38.81 39.07 40.05 40.89 41.06 41.17 42.83 43.72 44.54 45.86 47.73 49.42 50.89 59.58 60.00 59.78 59.47 58.80 58.74 59.17 59.07 59.14 59.27 59.40 59.17 58.61 57.19 55.92 54.86 54.19 54.17 54.36 54.27 54.62 52.91 51.24 50.98 50.41 53.14
38.09 38.17 37.92 37.20 37.37 37.81 38.51 38.96 39.36 39.38 40.83 42.04 43.41 45.17 46.81 47.90 49.62 51.29 60.10 60.28 59.93 59.99 60.32 59.51 59.29 59.47 59.81 59.29 59.01 58.71 57.71 56.57 55.42 55.00 54.94 53.45 53.65 53.53 53.19 50.52 50.25 47.86 50.24
37.26 37.31 37.66 37.18 36.94 36.90 36.99 37.06 37.32 38.12 39.44 40.34 42.40 44.52 46.78 47.98 48.83 50.22 52.27 59.85 60.49 60.17 60.38 60.10 59.47 59.11 59.04 59.02 58.74 58.10 57.36 57.12 57.03 55.43 54.71 54.49 54.64 54.31 53.50 53.03 52.05 50.49 48.11
36.79 36.96 37.03 36.29 36.58 36.92 36.43 36.51 36.53 36.66 38.22 39.81 41.98 43.89 45.59 47.81 49.76 51.22 51.72 56.14 59.66 59.47 59.17 59.27 60.02 59.69 59.17 58.66 58.28 57.81 57.94 57.47 56.54 56.28 55.39 54.85 54.70 54.84 54.10 52.67 52.62 52.18 50.32
35.89 36.14 36.03 36.57 35.69 36.59 35.19 35.18 35.23 35.74 36.53 38.53 40.31 42.32 44.27 46.61 49.31 53.60 53.87 55.79 59.24 59.09 58.62 59.33 59.43 58.88 58.74 58.16 57.77 57.68 57.81 56.83 56.56 56.48 55.56 54.78 54.67 54.15 53.83 53.38 52.14 51.46 51.12
35.62 35.29 35.15 35.39 34.58 34.45 34.54 34.31 34.61 34.77 35.70 37.08 38.83 39.97 41.71 43.42 44.95 46.78 48.98 55.70 52.08 51.23 50.73 50.03 48.50 47.01 47.13 48.15 49.72 50.49 51.20 51.52 49.86 49.40 49.05 46.71 46.83 45.34 45.07 45.35 45.83 49.16 50.49
34.48 34.10 34.40 33.45 33.55 33.72 33.56 33.02 33.30 33.75 35.01 36.04 37.07 37.33 38.47 39.61 40.54 41.96 43.91 46.23 45.65 44.52 44.06 42.89 41.61 40.90 41.25 42.70 44.45 45.79 45.91 45.36 44.45 44.00 42.74 41.93 41.96 41.29 41.70 42.60 42.49 43.02 42.83
32.23 31.91 32.13 31.84 32.52 33.07 33.04 32.64 32.47 33.25 34.26 34.96 35.20 35.49 35.46 36.27 37.53 39.08 39.45 41.11 41.67 40.67 40.10 39.41 38.94 38.96 38.61 39.44 41.16 41.32 41.43 41.29 40.66 41.07 40.69 39.81 39.34 39.03 39.07 39.83 40.14 40.24 40.52
32.42 31.57 30.41 30.18 30.18 31.45 32.54 32.46 32.63 32.92 33.70 33.40 34.11 34.07 34.78 34.89 34.99 35.60 36.25 37.34 37.45 37.52 38.04 38.13 37.92 38.47 38.13 37.97 39.29 39.01 38.82 38.70 38.41 38.63 38.94 37.76 35.09 35.55 36.64 37.32 37.21 37.52 37.40
33.04 32.26 31.94 30.27 28.76 29.07 30.85 31.97 32.72 32.11 34.32 32.42 32.41 33.73 33.46 33.05 33.13 33.08 33.59 34.16 34.11 34.48 35.14 35.75 35.95 35.29 36.66 37.01 36.93 38.30 37.96 37.60 37.11 36.32 36.80 36.34 34.96 36.43 36.67 36.95 36.94 36.76 35.88
34.42 33.35 32.07 30.38 29.09 29.13 30.03 31.55 32.07 33.12 33.47 32.60 32.07 32.53 32.20 31.70 32.25 31.97 31.57 31.42 32.32 33.01 32.34 33.99 34.44 34.03 34.90 35.51 35.65 35.82 36.26 35.71 35.16 34.46 34.40 34.22 34.66 35.39 36.31 36.02 35.83 34.93 36.36
34.72 33.52 32.67 31.75 30.72 30.42 30.00 31.52 32.10 32.05 31.51 32.20 31.37 31.84 32.17 31.29 31.81 30.96 30.12 30.28 30.63 30.61 30.70 31.34 32.78 33.12 33.70 34.04 33.99 34.21 35.14 34.48 33.73 33.71 33.71 33.72 33.70 34.47 34.49 34.34 34.06 34.43 35.12
35.99 34.36 33.28 31.26 30.74 30.18 30.49 31.04 30.94 30.64 30.10 29.84 30.91 31.43 31.72 30.72 30.77 29.57 29.97 30.19 30.10 29.75 29.22 29.87 30.74 31.75 32.16 33.62 32.95 33.18 33.42 32.98 32.65 32.55 32.90 33.09 33.05 33.41 33.47 32.47 31.54 32.42 33.08
35.28 33.74 32.98 30.86 29.83 29.92 30.39 30.10 29.22 29.72 28.79 28.93 29.87 30.96 31.14 30.27 28.81 29.34 29.08 29.35 29.41 28.47 28.85 28.38 29.38 29.73 31.16 32.78 32.85 32.18 31.86 31.25 31.12 31.35 31.20 31.20 32.39 32.45 32.57 31.40 30.67 29.89 29.83
34.07 33.34 31.90 30.89 29.59 27.76 28.66 27.73 27.28 27.11 27.51 28.67 29.27 29.30 30.07 29.41 29.68 29.12 29.14 28.98 28.57 28.26 28.07 27.77 28.10 28.39 29.68 30.74 31.94 31.93 30.22 29.90 29.93 29.13 28.88 29.99 31.21 31.40 31.77 31.21 29.79 28.74 29.69
32.53 32.57 31.17 29.90 28.53 26.22 27.75 27.09 26.29 24.52 26.26 28.17 27.33 27.51 28.44 28.86 29.09 28.60 28.32 28.45 28.52 27.67 27.22 27.55 27.58 27.89 28.67 29.49 30.04 30.33 29.99 29.49 28.67 27.35 28.35 28.83 29.21 29.10 29.67 29.30 29.01 29.13 28.92
32.19 31.67 30.02 28.21 25.47 23.37 24.39 26.22 24.19 22.71 26.46 27.59 25.25 25.97 26.59 27.59 28.49 28.76 27.92 27.87 27.84 27.54 26.55 26.55 26.77 26.74 28.30 29.35 29.25 28.82 27.94 26.66 26.11 25.98 26.21 26.72 27.07 27.23 26.24 27.26 27.63 27.75 28.49
29.60 29.10 27.30 25.60 25.41 22.83 22.68 24.35 21.75 22.00 26.76 27.08 27.25 27.36 26.59 27.17 27.78 28.51 28.82 28.32 27.27 26.87 26.45 26.17 25.88 26.28 26.93 27.57 28.46 28.37 27.95 26.09 25.48 23.72 24.92 24.15 25.38 25.85 25.69 25.51 26.21 26.37 26.01
28.03 27.51 27.10 27.11 26.54 24.18 22.43 20.11 19.07 22.18 26.60 26.72 27.29 27.37 27.29 26.61 26.52 27.09 28.06 27.78 27.95 27.68 27.03 26.57 26.00 25.85 25.72 26.20 27.25 26.94 26.50 26.77 23.45 20.94 25.05 24.10 24.19 24.01 23.70 24.36 24.07 25.02 24.99
28.24 26.04 26.81 26.36 26.51 22.45 21.63 19.02 16.18 21.69 26.72 27.21 27.23 27.57 27.30 26.65 25.22 26.31 25.76 27.53 27.53 27.17 26.84 27.17 27.04 26.12 25.94 25.93 25.91 25.32 24.78 23.04 21.92 21.84 22.05 20.89 21.04 20.16 20.60 21.04 22.05 23.19 22.18
MSLP
1024.31 1023.95 1023.98 1023.95 1023.48 1023.00 1022.37 1021.77 1021.38 1020.87 1020.77 1019.58 1019.17 1019.24 1019.42 1020.16 1020.59 1020.92 1021.40 1021.79 1022.28 1022.81 1022.96 1022.86 1023.01 1023.29 1023.58 1023.94 1024.26 1024.65 1024.95 1025.43 1025.75 1025.82 1025.73 1025.73 1025.48 1025.21 1025.07 1025.18 1025.25 1025.30 1025.53
1025.05 1025.20 1024.96 1024.24 1023.70 1023.51 1023.52 1022.93 1022.16 1021.56 1021.11 1020.75 1019.34 1019.12 1019.48 1019.44 1019.80 1020.11 1020.77 1021.10 1021.34 1021.87 1022.51 1022.40 1022.70 1022.80 1023.10 1023.49 1023.87 1024.17 1024.65 1024.88 1025.47 1025.51 1025.86 1025.22 1024.43 1024.50 1024.46 1024.56 1024.76 1024.96 1025.03
1025.58 1025.21 1025.02 1024.66 1024.21 1023.80 1023.51 1023.46 1023.09 1022.46 1021.78 1021.17 1020.08 1018.99 1019.10 1019.27 1019.59 1020.01 1020.19 1020.43 1020.92 1021.34 1021.75 1022.10 1022.00 1022.22 1022.30 1022.47 1022.99 1023.45 1023.91 1024.24 1024.85 1025.11 1025.02 1025.10 1024.28 1024.26 1024.29 1024.39 1024.44 1024.59 1024.55
1026.06 1025.80 1025.44 1025.03 1024.79 1024.48 1024.25 1023.66 1023.31 1022.89 1022.23 1021.50 1020.63 1020.08 1019.32 1019.22 1018.90 1018.98 1019.83 1019.87 1020.35 1020.67 1020.67 1021.54 1021.54 1021.78 1022.05 1022.10 1022.27 1022.55 1023.09 1023.63 1024.02 1024.82 1024.63 1024.20 1024.03 1024.20 1023.54 1023.78 1023.87 1024.05 1024.02
1026.52 1026.09 1025.77 1025.53 1025.17 1024.79 1024.41 1024.00 1023.35 1022.79 1022.38 1021.77 1021.21 1020.49 1019.62 1018.81 1018.64 1018.99 1019.18 1018.98 1019.28 1019.78 1020.27 1020.66 1020.62 1021.11 1021.57 1021.59 1021.93 1022.20 1022.46 1022.75 1022.98 1023.36 1023.79 1023.97 1023.94 1024.05 1024.02 1022.88 1022.63 1023.17 1023.08
1026.86 1026.36 1026.00 1025.80 1025.36 1024.98 1024.47 1024.01 1023.48 1022.87 1022.29 1021.82 1021.34 1020.68 1019.95 1019.35 1018.71 1018.59 1018.50 1018.63 1018.84 1019.13 1019.45 1019.80 1019.72 1020.02 1020.61 1021.07 1021.24 1021.65 1022.02 1022.34 1022.54 1022.72 1022.75 1022.79 1022.67 1022.63 1023.13 1022.88 1022.11 1021.78 1021.48
1026.87 1026.42 1026.14 1025.86 1025.57 1025.24 1024.75 1024.12 1023.59 1022.95 1022.51 1022.05 1021.40 1020.81 1020.20 1019.64 1018.97 1018.02 1017.94 1018.07 1018.25 1018.57 1018.80 1019.04 1019.14 1019.50 1019.68 1020.01 1020.41 1020.84 1021.24 1021.66 1021.93 1022.10 1022.07 1022.09 1021.91 1021.79 1022.13 1022.09 1021.47 1021.16 1020.75
1026.98 1026.76 1026.64 1026.40 1026.01 1025.53 1025.08 1024.51 1023.88 1023.29 1022.80 1022.23 1021.54 1020.97 1020.39 1019.75 1019.00 1018.39 1017.42 1017.37 1017.60 1017.92 1018.19 1018.61 1018.82 1018.86 1019.26 1019.80 1019.88 1020.08 1020.48 1020.79 1020.69 1021.22 1021.38 1021.49 1021.56 1021.78 1021.75 1021.59 1021.41 1020.87 1020.31
1027.10 1026.96 1026.89 1026.75 1026.40 1025.90 1025.44 1024.92 1024.30 1023.70 1023.08 1022.45 1021.68 1020.90 1020.23 1019.62 1019.01 1018.49 1018.06 1017.23 1017.45 1017.64 1017.86 1018.04 1018.37 1018.61 1018.77 1018.87 1019.17 1019.26 1019.63 1019.97 1020.29 1020.38 1020.68 1020.92 1020.89 1021.02 1021.10 1021.11 1020.97 1020.79 1019.96
1027.00 1027.03 1027.01 1026.93 1026.67 1026.25 1025.84 1025.36 1024.82 1024.15 1023.45 1022.72 1021.89 1021.06 1020.29 1019.62 1018.92 1018.30 1017.94 1017.57 1017.30 1017.42 1017.69 1017.82 1018.07 1018.26 1018.44 1018.54 1018.82 1019.01 1019.15 1019.25 1019.63 1019.82 1020.13 1020.17 1020.26 1020.16 1020.39 1020.41 1020.33 1020.14 1019.69
1027.23 1027.20 1027.20 1027.08 1026.96 1026.46 1026.10 1025.67 1025.14 1024.53 1023.76 1022.96 1022.11 1021.36 1020.61 1019.86 1019.01 1017.97 1017.67 1017.42 1017.22 1017.36 1017.58 1017.78 1018.02 1018.30 1018.42 1018.50 1018.66 1018.72 1018.82 1019.03 1019.02 1019.33 1019.46 1019.71 1019.95 1019.97 1019.96 1019.93 1019.82 1019.70 1019.63
1027.59 1027.64 1027.50 1027.25 1027.00 1026.67 1026.31 1025.93 1025.39 1024.84 1024.09 1023.27 1022.46 1021.76 1021.02 1020.27 1019.57 1018.85 1018.35 1017.47 1017.75 1017.87 1018.03 1018.27 1018.68 1019.17 1019.37 1019.51 1019.37 1019.35 1019.31 1019.36 1019.67 1019.97 1020.04 1020.45 1020.58 1020.63 1020.70 1020.69 1020.34 1019.90 1019.67
1027.99 1028.06 1027.83 1027.61 1027.37 1027.03 1026.63 1026.26 1025.69 1025.20 1024.48 1023.67 1022.93 1022.35 1021.69 1020.97 1020.42 1019.98 1019.46 1019.03 1018.90 1019.03 1019.40 1019.55 1019.87 1020.36 1020.41 1020.47 1020.44 1020.49 1020.57 1020.57 1020.89 1021.12 1021.45 1021.51 1021.53 1021.39 1021.55 1021.21 1020.87 1020.67 1020.51
1028.43 1028.50 1028.27 1028.19 1027.97 1027.61 1027.12 1026.64 1026.08 1025.64 1024.92 1024.21 1023.51 1023.02 1022.53 1021.92 1021.37 1021.03 1020.70 1020.63 1020.43 1020.17 1020.51 1020.79 1021.05 1021.46 1021.46 1021.40 1021.34 1021.43 1021.50 1021.65 1021.85 1022.10 1022.33 1022.40 1022.51 1022.40 1022.19 1021.78 1021.57 1021.29 1020.89
1028.28 1028.53 1028.66 1028.65 1028.47 1028.16 1027.64 1027.12 1026.66 1026.19 1025.48 1024.85 1024.24 1023.85 1023.42 1022.86 1022.48 1022.00 1021.85 1021.93 1022.02 1021.98 1021.84 1021.69 1021.88 1022.16 1022.19 1022.36 1022.20 1022.27 1022.23 1022.51 1022.72 1022.97 1023.09 1023.34 1023.47 1022.93 1022.95 1022.52 1022.18 1022.10 1021.32
1027.88 1028.19 1028.53 1028.66 1028.58 1028.36 1028.03 1027.51 1027.11 1026.82 1026.03 1025.57 1025.21 1024.72 1024.25 1023.60 1023.39 1023.20 1023.21 1023.07 1023.29 1023.48 1023.25 1023.20 1023.07 1022.83 1023.07 1023.44 1023.15 1022.86 1022.98 1023.27 1023.44 1023.63 1023.56 1023.51 1023.46 1022.90 1022.74 1022.69 1022.64 1022.36 1022.14
1027.33 1027.74 1028.04 1028.47 1028.60 1028.46 1028.15 1027.60 1027.19 1026.78 1026.19 1025.77 1025.56 1025.32 1025.13 1024.64 1024.43 1024.13 1023.84 1024.22 1024.61 1024.61 1024.11 1024.95 1024.13 1024.05 1023.81 1024.15 1023.95 1023.73 1023.76 1023.91 1024.18 1024.33 1023.70 1023.71 1023.83 1023.51 1023.05 1023.01 1022.73 1022.64 1022.33
1026.73 1027.26 1027.81 1028.18 1028.40 1028.34 1028.08 1027.87 1027.56 1027.10 1026.68 1026.26 1026.31 1026.07 1025.80 1025.57 1025.36 1024.91 1024.03 1025.37 1025.13 1025.98 1026.48 1025.90 1025.34 1024.95 1024.72 1024.82 1024.44 1024.58 1024.50 1024.70 1024.88 1024.74 1024.48 1024.45 1024.39 1024.00 1023.69 1023.19 1022.89 1022.75 1022.66
1026.24 1026.98 1027.68 1028.24 1028.45 1028.40 1028.41 1028.05 1027.97 1027.89 1027.54 1027.42 1027.13 1026.83 1026.56 1026.58 1026.06 1025.55 1025.85 1026.75 1026.73 1026.64 1026.67 1026.43 1026.42 1025.92 1025.93 1025.33 1024.85 1024.99 1025.05 1025.18 1025.07 1025.38 1025.36 1025.01 1024.66 1024.44 1024.12 1023.72 1023.51 1023.20 1022.83
1026.11 1026.87 1027.61 1028.22 1028.58 1028.72 1028.78 1028.50 1028.49 1028.44 1028.19 1028.08 1027.73 1027.38 1027.01 1027.16 1026.90 1027.00 1027.00 1027.13 1027.16 1027.39 1027.45 1027.30 1027.04 1026.92 1026.47 1025.81 1025.60 1025.46 1025.53 1025.25 1025.67 1025.81 1025.75 1025.51 1025.18 1024.93 1024.53 1024.22 1023.87 1023.54 1023.35
1026.10 1026.97 1027.57 1028.05 1028.76 1029.15 1029.11 1029.04 1029.10 1029.10 1028.98 1028.67 1028.38 1028.24 1027.84 1027.61 1027.33 1027.38 1027.58 1027.74 1027.80 1027.83 1027.77 1027.68 1027.92 1027.81 1027.45 1027.12 1026.65 1026.26 1026.13 1025.98 1026.24 1026.11 1026.20 1026.18 1025.76 1025.27 1024.93 1024.59 1024.32 1024.23 1023.91
1026.18 1026.96 1027.60 1028.18 1028.82 1029.33 1029.33 1029.40 1029.54 1029.68 1029.48 1029.10 1028.93 1028.64 1028.35 1028.07 1027.99 1027.99 1028.20 1028.23 1028.22 1028.23 1028.30 1028.27 1028.10 1027.96 1027.79 1027.58 1027.22 1026.86 1026.68 1026.54 1026.44 1026.99 1026.80 1026.96 1026.33 1025.60 1025.26 1025.04 1025.05 1024.39 1023.67
1026.03 1026.82 1027.50 1028.27 1028.93 1029.44 1029.55 1029.56 1029.74 1029.87 1029.65 1029.36 1029.18 1028.93 1028.74 1028.59 1028.54 1028.42 1028.48 1028.42 1028.51 1028.49 1028.68 1028.63 1028.40 1028.20 1027.98 1027.65 1027.57 1027.50 1027.41 1027.39 1027.53 1027.62 1027.49 1027.29 1026.74 1026.13 1026.11 1025.65 1025.00 1024.62 1024.31
1025.82 1026.51 1027.34 1028.02 1028.57 1029.18 1029.56 1029.51 1029.84 1029.98 1029.74 1029.55 1029.38 1029.22 1029.07 1028.96 1028.83 1028.70 1028.69 1028.73 1028.80 1028.83 1028.82 1028.72 1028.70 1028.71 1028.63 1028.53 1028.31 1028.12 1027.97 1027.97 1028.00 1028.15 1027.89 1027.77 1027.21 1026.66 1026.33 1025.89 1025.52 1025.21 1024.95
1025.45 1026.15 1026.68 1027.20 1027.75 1028.37 1029.02 1029.39 1029.61 1029.73 1029.41 1029.35 1029.26 1029.27 1029.23 1029.18 1029.15 1029.12 1029.04 1029.00 1029.12 1029.05 1028.94 1029.14 1029.35 1029.37 1029.20 1029.20 1029.06 1028.90 1028.78 1028.68 1028.68 1028.81 1027.98 1027.59 1027.23 1026.85 1026.51 1026.24 1026.08 1025.66 1025.20
1024.54 1025.50 1025.98 1026.57 1026.99 1027.61 1028.21 1028.84 1029.16 1029.31 1029.10 1029.03 1028.97 1028.88 1028.92 1029.01 1029.09 1029.13 1029.38 1029.46 1029.49 1029.55 1029.55 1029.38 1029.42 1029.87 1029.90 1029.82 1029.58 1029.59 1029.49 1029.28 1028.91 1028.73 1028.48 1028.39 1028.11 1027.94 1027.69 1027.29 1026.93 1026.52 1025.97
Wind_Speed
14 16 15 14 14 14 15 15 13 13 8 5 4 4 6 7 7 7 13 11 9 8 9 8 10 10 10 9 10 8 8 5 3 2 4 7 9 11 11 9 9 10 10
13 13 14 14 14 13 13 13 14 12 9 6 5 3 4 5 8 8 11 12 14 14 9 11 11 12 9 12 11 11 7 7 6 3 1 4 4 6 9 9 9 11 9
15 16 16 15 14 15 16 13 13 12 10 11 7 4 2 2 4 7 7 12 12 11 14 13 11 12 11 11 13 12 14 8 7 9 4 2 4 3 3 5 6 8 8
14 14 16 16 15 14 13 14 13 11 9 10 8 6 7 5 6 6 7 9 13 12 15 12 12 10 9 12 10 11 11 10 9 6 9 10 6 5 6 4 4 6 7
14 15 15 14 13 13 13 12 13 12 11 10 8 6 6 5 7 7 10 10 12 14 14 14 13 12 9 10 10 11 12 10 9 8 4 10 8 8 8 10 8 5 7
13 14 14 14 14 14 13 12 13 13 13 11 11 9 7 6 5 7 7 7 7 8 13 13 12 12 11 12 11 11 11 10 7 5 9 8 6 9 9 11 10 10 9
12 14 16 16 15 15 15 13 13 13 13 13 12 11 11 10 9 8 8 8 7 6 10 12 10 9 11 12 11 11 11 11 10 12 10 9 10 8 7 9 10 9 6
11 13 14 14 15 16 15 15 14 14 13 13 12 11 11 7 7 8 6 6 7 8 9 10 10 11 11 12 11 8 9 10 11 14 10 8 8 7 9 9 9 8 9
11 13 13 12 13 14 15 14 14 13 12 13 11 11 10 10 9 11 8 6 7 5 7 10 11 10 9 10 10 8 10 10 10 12 11 10 10 8 9 9 9 10 8
12 12 11 12 12 13 13 13 13 13 13 12 10 10 11 11 11 10 9 8 6 6 8 9 11 10 9 9 9 8 9 10 9 8 10 10 9 9 7 8 9 9 11
11 11 11 11 11 12 13 12 12 12 12 12 11 10 9 10 11 9 9 8 7 8 8 7 7 5 6 5 6 8 8 8 8 6 7 9 6 6 6 7 7 8 8
9 10 10 11 11 12 13 13 12 12 11 11 10 10 10 9 9 9 9 7 7 9 8 9 9 9 9 9 8 8 8 7 7 6 7 7 4 7 7 5 7 6 6
8 8 9 11 12 12 12 13 12 12 11 10 10 11 11 11 12 11 11 11 10 11 11 12 12 10 10 9 9 9 8 9 9 9 9 9 8 7 6 5 5 5 6
5 5 7 8 10 10 12 12 12 12 11 10 9 10 11 12 11 12 13 11 10 12 12 12 12 11 11 9 8 9 8 9 10 9 9 9 9 8 8 7 8 7 7
3 3 4 6 7 9 9 10 11 11 10 10 10 11 9 10 11 13 13 13 13 12 11 13 12 12 11 8 7 9 9 8 9 9 9 10 8 10 9 6 8 8 8
4 3 2 4 6 7 8 9 7 9 7 10 11 9 10 10 11 11 13 12 12 12 13 12 12 12 9 16 15 9 10 10 9 8 8 8 9 9 9 10 8 6 6
2 3 3 3 4 5 7 8 9 8 8 10 10 11 10 9 9 10 14 14 11 8 14 9 14 12 13 16 16 12 9 9 9 8 9 8 6 8 8 9 10 8 8
4 4 2 1 3 4 5 6 7 7 10 11 10 10 10 10 8 11 15 11 10 10 7 10 12 12 13 15 14 11 9 9 10 10 10 8 9 11 9 9 9 8 7
6 4 3 1 2 4 4 4 5 6 7 8 7 7 9 9 11 12 12 8 8 9 9 9 10 11 12 17 15 9 7 8 10 8 9 9 10 14 13 8 9 7 7
7 6 5 3 1 3 2 2 4 4 6 5 6 6 8 7 9 8 8 8 8 8 7 9 10 11 11 20 19 11 5 8 5 6 8 14 10 12 13 9 8 9 10
9 7 5 4 2 2 2 3 1 4 4 4 6 6 6 8 9 9 8 7 7 7 8 9 9 9 11 13 18 17 7 6 5 6 7 7 12 12 13 13 8 8 9
9 8 6 5 4 3 3 3 3 1 3 5 5 6 6 6 6 8 7 7 6 7 7 6 6 7 8 15 16 18 16 12 7 7 6 6 12 13 16 12 13 13 11
9 8 7 5 5 4 4 4 4 3 3 3 3 4 5 5 5 7 6 6 6 6 6 5 6 7 7 8 18 17 17 14 7 5 6 8 11 11 8 14 17 13 8
9 7 7 7 7 7 5 3 5 4 4 4 3 3 4 5 6 5 5 5 5 4 5 6 7 6 7 8 8 7 7 9 6 6 5 5 6 10 9 8 9 8 8
7 8 9 8 8 8 8 6 6 6 6 5 4 3 3 3 5 5 5 5 7 5 5 5 4 4 5 7 8 8 5 4 3 2 3 5 6 7 8 8 8 8 8
9 9 10 8 8 8 8 8 7 7 7 6 4 3 3 2 2 4 5 7 7 8 10 9 7 3 5 6 4 6 8 7 6 3 5 6 7 7 7 7 7 7 8
Wind_Direction
10 14 2 358 3 12 8 3 0 4 339 321 189 226 192 196 198 198 188 183 195 201 212 214 206 198 201 206 206 208 212 208 205 214 244 256 250 255 248 245 249 247 243
11 10 1 357 0 1 4 357 354 349 350 331 325 185 185 203 205 192 193 194 202 200 208 213 212 206 204 210 207 204 201 217 189 197 212 289 276 244 250 246 246 251 247
1 358 360 358 354 356 350 348 346 340 338 332 318 232 134 165 188 201 195 202 194 211 213 212 219 218 212 207 207 206 207 211 201 207 204 213 245 319 177 221 233 240 240
1 359 354 352 352 347 341 337 337 336 334 334 336 340 225 200 201 194 199 198 206 200 210 209 216 217 224 229 216 208 212 218 212 210 235 244 256 258 283 201 215 220 234
357 352 352 350 347 346 342 336 332 333 336 337 329 323 325 242 205 196 210 203 194 201 205 208 202 206 212 224 227 221 217 215 219 206 182 226 230 239 251 274 262 221 231
354 348 351 348 347 346 344 341 338 333 335 333 329 319 310 307 232 205 208 202 204 203 209 208 213 214 215 213 213 220 217 221 224 224 228 213 207 219 221 238 255 249 261
357 352 353 349 347 346 344 342 341 335 335 329 325 322 311 302 290 228 202 198 204 204 210 210 212 210 211 218 218 215 211 211 215 221 229 234 246 254 234 242 255 259 256
354 357 355 348 343 343 344 342 341 336 334 329 323 317 309 301 296 295 258 209 208 213 209 211 220 222 218 218 220 223 219 215 217 228 229 230 236 234 242 240 246 262 251
347 352 354 351 345 343 343 341 338 334 333 329 323 317 310 303 293 293 296 243 221 224 204 208 214 218 222 221 216 217 223 217 221 224 224 234 240 238 240 245 238 245 268
346 350 350 350 348 347 345 344 342 336 333 331 329 320 313 304 294 282 269 277 216 192 209 209 221 222 220 221 219 219 228 226 228 225 228 232 236 236 235 235 242 243 252
345 345 346 348 348 352 350 347 349 344 344 338 339 338 333 321 311 266 266 248 212 201 212 218 224 229 243 254 234 231 234 226 228 231 225 240 274 260 249 245 244 248 247
344 346 346 344 352 353 351 350 353 351 348 347 352 357 359 3 7 20 14 12 85 57 69 75 71 58 43 31 38 47 39 59 60 41 60 40 27 40 19 5 9 346 316
342 349 351 353 349 350 350 350 351 349 350 359 9 14 15 24 27 26 29 43 63 70 67 65 64 55 49 42 42 45 51 58 58 52 49 42 35 35 8 4 1 350 337
317 336 351 351 348 347 353 351 350 350 356 8 22 25 25 29 33 36 34 39 55 73 71 69 70 57 53 48 51 58 60 59 57 56 57 49 40 29 12 5 0 348 340
316 336 343 334 341 342 349 355 352 356 0 6 25 26 28 42 40 43 45 41 44 53 62 74 69 58 51 40 61 65 67 69 72 64 66 51 36 39 20 11 6 351 359
283 301 343 349 344 346 343 351 3 3 15 31 26 23 37 47 48 48 46 51 48 44 48 55 58 63 56 48 46 67 75 72 70 63 64 53 25 17 15 14 8 13 353
264 293 343 337 327 345 330 1 10 13 24 44 37 25 21 35 52 60 57 44 39 56 52 40 63 57 61 52 48 51 66 65 65 59 50 39 18 7 12 21 29 26 16
220 236 246 299 328 351 352 358 14 34 32 38 40 39 41 33 42 58 58 47 44 61 72 57 58 58 55 58 62 59 72 75 68 57 46 41 27 17 12 16 17 14 359
186 196 184 111 348 350 349 6 25 42 51 39 47 42 66 55 49 58 67 62 69 66 63 60 56 57 54 50 55 65 69 69 61 53 42 34 31 18 15 15 9 355 359
171 179 173 153 276 288 332 36 36 44 56 41 46 38 67 72 72 77 80 75 74 78 80 74 59 51 46 42 43 46 55 62 52 48 35 30 28 26 30 27 10 1 353
177 172 172 176 185 274 292 104 39 58 24 22 42 43 59 66 67 68 62 68 71 69 64 63 57 53 44 43 43 44 50 51 51 40 28 17 22 33 35 32 25 11 342
182 185 184 192 173 212 234 175 154 348 352 45 50 47 53 64 63 72 68 64 71 73 67 66 62 45 37 35 35 40 43 40 50 33 23 6 20 38 34 28 19 17 11
191 186 190 187 187 204 228 202 169 174 177 109 78 84 83 87 89 90 84 78 66 64 59 54 53 38 23 25 26 29 33 37 45 30 17 16 23 32 33 29 25 19 10
195 183 178 196 207 191 207 225 166 173 174 157 134 83 72 78 78 83 76 76 71 75 69 59 50 38 30 21 16 18 17 23 26 12 18 7 26 43 38 28 25 23 13
185 184 198 203 206 180 187 183 179 184 171 162 151 129 100 89 96 77 84 82 65 61 73 65 58 36 31 15 13 15 6 353 12 298 30 34 23 26 23 21 17 15 11
179 189 204 208 199 183 189 179 182 188 179 173 174 168 158 129 109 119 102 71 88 82 81 71 57 39 16 1 16 28 24 18 22 44 37 32 25 24 12 12 3 8 9